This demonstration page uses our WeatherBlox Daily Observations layout. Learn more.

Left ArrowRight Arrow

38.20091, -84.87328

Hourly Observations for September 14, 2021

Temp ( °F °C ) Dew Point ( °F °C ) Humidity (%) Winds ( mph kmh ) Pressure ( in mb ) Visibility ( mi km ) Precip ( " mm )
12:53 am 00:53 Clear 70 21.1 67 19.4 90 90 Calm 30.06 1018 10 16 0.00 0.00
1:53 am 01:53 Clear 70 21.1 67 19.4 90 90 Calm 30.05 1018 10 16 0.00 0.00
2:53 am 02:53 Clear 71 21.7 67 19.4 87 87 S 5 7 30.04 1017 10 16 0.00 0.00
3:53 am 03:53 Clear 68 20 66 18.9 93 93 S 3 6 30.03 1017 10 16 0.00 0.00
4:53 am 04:53 Clear 67 19.4 66 18.9 97 97 S 3 6 30.03 1017 10 16 0.00 0.00
5:53 am 05:53 Clear 68 20 66 18.9 93 93 S 5 7 30.04 1017 10 16 0.00 0.00
6:53 am 06:53 Clear 68 20 66 18.9 93 93 SSW 5 7 30.04 1017 10 16 0.00 0.00
7:53 am 07:53 Sunny 68 20 66 18.9 93 93 SSW 5 7 30.06 1018 9 14 0.00 0.00
8:53 am 08:53 Sunny 71 21.7 68 20 90 90 SSW 7 11 30.06 1018 10 16 0.00 0.00
9:53 am 09:53 Sunny 76 24.4 70 21.1 82 82 SW 7 11 30.04 1017 10 16 0.00 0.00
10:53 am 10:53 Sunny 81 27.2 72 22.2 74 74 SSW 10 17 30.04 1017 10 16 0.00 0.00
11:53 am 11:53 Mostly Cloudy 84 28.9 72 22.2 67 67 SW 9 15 30.03 1017 10 16 0.00 0.00
12:21 pm 12:21 Partly Cloudy 81 27.2 71 21.7 72 72 SW 9 15 30.00 1016 10 16 0.00 0.00
12:53 pm 12:53 Mostly Cloudy 82 27.8 70 21.1 67 67 SW 10 17 30.01 1016 10 16 0.00 0.00
1:53 pm 13:53 Sunny 86 30 70 21.1 59 59 SW 10 17 29.98 1015 10 16 0.00 0.00
2:53 pm 14:53 Partly Cloudy 87 30.6 69 20.6 55 55 SSW 13 20 29.96 1014 10 16 0.00 0.00
3:53 pm 15:53 Partly Cloudy 87 30.6 69 20.6 55 55 SW 10 17 29.93 1014 10 16 0.00 0.00
4:53 pm 16:53 Sunny 88 31.1 69 20.6 54 54 WSW 9 15 29.92 1013 10 16 0.00 0.00
5:53 pm 17:53 Sunny 86 30 68 20 55 55 SW 9 15 29.91 1013 10 16 0.00 0.00
6:53 pm 18:53 Sunny 84 28.9 69 20.6 61 61 SSW 8 13 29.91 1013 10 16 0.00 0.00
7:53 pm 19:53 Clear 79 26.1 70 21.1 74 74 SSW 5 7 29.90 1013 10 16 0.00 0.00
8:53 pm 20:53 Clear 76 24.4 70 21.1 82 82 SW 5 7 29.90 1013 10 16 0.00 0.00
9:53 pm 21:53 Clear 74 23.3 70 21.1 88 88 SW 6 9 29.91 1013 10 16 0.00 0.00
10:53 pm 22:53 Clear 76 24.4 70 21.1 82 82 WSW 5 7 29.91 1013 10 16 0.00 0.00
11:53 pm 23:53 Clear 75 23.9 70 21.1 84 84 WSW 6 9 29.91 1013 10 16 0.00 0.00

Powered by AerisWeather